Retour au catalogue

STARLINK-2509

ActifCommunicationsVLEO
NORAD 48318·PAYLOAD·🇺🇸 United States

Lancé Apr 29, 2021 depuis Cape Canaveral Space Force Station

Loading…

Prochains Passages (prochaines 24 heures)

TLE

FraisSource: CelesTrak SupGP

Époque: Sep 14, 2026, 20:22 UTC

1 48318C 21036AU  26257.84909722 -.00016503  00000+0 -53030-3 0  2576
2 48318  53.1574 301.5589 0001053  91.2498 127.6986 15.31733603    16

Suivez STARLINK-2509 en temps réel avec AllMySat

Download on the App Store